Volver al catálogo

STARLINK-30943

ActivoComunicacionesVLEO
NORAD 58449·PAYLOAD·🇺🇸 United States

Lanzado Nov 28, 2023 desde Cape Canaveral Space Force Station

Loading…

Próximos Pases (próximas 24 horas)

TLE

ActualizadoSource: CelesTrak SupGP

Época: Sep 15, 2026, 02:21 UTC

1 58449C 23183N   26258.09840278 -.00012015  00000+0 -43519-3 0  2581
2 58449  43.0027  26.0753 0001648 271.4577 312.9069 15.27582353    15

Sigue STARLINK-30943 en tiempo real con AllMySat

Download on the App Store